Regional Weather Roundup
Issued by NWS

Home | Current Version | Previous Version | Graphics & Text | Print | Product List | Glossary On
Versions: 1 2 3 4 5 6 7 8 9 10 11 12 13 14 15 16 17 18 19 20 21 22 23 24 25 26 27 28 29 30 31 32 33 34 35 36 37 38 39 40 41 42 43 44 45 46 47 48 49 50
000
ASUS43 KMPX 040901
RWRMN
WEATHER ROUNDUP FOR MINNESOTA
NATIONAL WEATHER SERVICE TWIN CITIES/CHANHASSEN MN
400 AM CDT WED MAY 04 2016


NOTE: "FAIR" INDICATES FEW OR NO CLOUDS BELOW 12,000 FEET WITH NO
SIGNIFICANT WEATHER AND/OR OBSTRUCTIONS TO VISIBILITY. N/A MEANS
CURRENT SKY AND/OR WEATHER CONDITIONS ARE NOT AVAILABLE.

MNZ060>063-068>070-041000-
   Twin Cities Metro

CITY           SKY/WX    TMP DP  RH WIND       PRES   REMARKS
TWIN CITIES    CLEAR     50  32  50 NE9       29.92R
ST PAUL        CLEAR     49  33  54 N9        29.92R
CRYSTAL        CLEAR     48  33  56 N6        29.92R
BLAINE         CLEAR     45  34  65 CALM      29.92R
EDEN PRAIRIE   CLEAR     51  31  46 NE8       29.91R
SOUTH ST PAUL  CLEAR     51  32  49 N5        29.91R
LAKE ELMO      FAIR      46  34  61 N5        29.92R
$$
MNZ001>005-007-008-013>017-022>024-027-028-041000-
   Northwest Minnesota

CITY           SKY/WX    TMP DP  RH WIND       PRES   REMARKS
BEMIDJI        CLEAR     32  31  94 NW5       29.99S WCI  28
HALLOCK        CLEAR     37  30  75 CALM      30.05S
ROSEAU         CLEAR     39  34  81 NW3       30.03R
WARROAD        CLEAR     37  34  87 NW3       30.02S
THIEF RVR FALL CLEAR     43  32  65 N8        30.04R
CROOKSTON      CLEAR     36  28  75 NW7       30.05R
FOSSTON        CLEAR     34  30  86 CALM      30.02R
DETROIT LAKES  CLEAR     41  34  75 NW6       30.02R
MOORHEAD       CLEAR     39  28  65 N6        30.04R
PARK RAPIDS    CLEAR     39  31  72 NW3       29.98S
MAHNOMEN       FAIR      39  35  83 N6        30.01R
$$
MNZ006-009>011-018-025>026-041000-
   North Central Minnesota

CITY           SKY/WX    TMP DP  RH WIND       PRES   REMARKS
BAUDETTE       CLEAR     40  34  79 N6        30.00R
FLAG ISLAND    CLEAR     45  36  70 N9        30.01R
INTL FALLS     CLEAR     38  31  76 N8        29.97R
WASKISH        CLEAR     41  34  75 N5        29.99R
BIG FORK       CLEAR     32  28  86 CALM      29.97R
LONGVILLE      CLEAR     36  32  87 CALM      29.96S
GRAND RAPIDS   CLEAR     36  27  69 CALM      29.96S
CRANE LAKE     CLEAR     27  27 100 CALM      29.96R
ORR            CLEAR     39  30  70 CALM      29.92S
COOK           CLEAR     34  28  80 NW3       29.94R
WALKER         FAIR      38  32  77 W3        29.98R
$$
MNZ012-019>021-037-041000-
   Northeast Minnesota

CITY           SKY/WX    TMP DP  RH WIND       PRES   REMARKS
DULUTH         CLEAR     40  30  67 N5        29.90S
ELY            CLEAR     37  30  75 CALM      29.91R
HIBBING        CLEAR     29  27  92 NW3       29.93R
EVELETH        CLEAR     43  30  61 NW7       29.93S
DULUTH HARBOR  CLEAR     46  36  66 N14       29.91R
TWO HARBORS    CLEAR     45  34  65 NW3       29.88R
SILVER BAY     CLEAR     43  30  61 NW5       29.88R
GRAND MARAIS     N/A     36  31  82 VRB3      29.87R
G MARAIS ARPRT CLEAR     37  28  70 NW9       29.85R
$$
MNZ029>031-032-039>041-046>048-054>057-064-041000-
   West Central Minnesota

CITY           SKY/WX    TMP DP  RH WIND       PRES   REMARKS
FERGUS FALLS   CLEAR     45  36  70 N7        29.99R
WHEATON        CLEAR     45  34  65 NW6       30.04R
MORRIS         CLEAR     41  32  70 N6        29.99R
ALEXANDRIA     CLEAR     44  34  67 N7        29.99R
ELBOW LAKE     FAIR      43  35  72 N5        30.00S
WADENA         CLEAR     41  32  70 N6        29.99R
GLENWOOD       CLEAR     43  34  70 N7        29.99R
APPLETON       CLEAR     45  34  65 N7        29.99R
BENSON         CLEAR     39  30  70 N6        29.99R
ORTONVILLE     CLEAR     45  32  61 NW8       30.01R
MADISON        CLEAR     45  34  65 NW7       30.00R
WILLMAR        FAIR      45  34  65 N6        29.98R
$$
MNZ033>034-036-042>043-049>051-058-059-041000-
   Central Minnesota

CITY           SKY/WX    TMP DP  RH WIND       PRES   REMARKS
ST CLOUD       CLEAR     42  32  67 N5        29.95R
SAUK CENTRE    FAIR      42  33  70 N6        29.98R
PAYNESVILLE    CLEAR     44  32  61 N5        29.97R
AITKIN         CLEAR     37  30  75 CALM      29.94R
PINE RIVER     CLEAR     36  30  80 CALM      30.00S
BRAINERD       CLEAR     42  32  67 N5        29.96S
STAPLES        CLEAR     39  32  75 NW3       29.98R
LONG PRAIRIE   FAIR      37  32  81 CALM      29.97R
LITTLE FALLS   CLEAR     41  32  70 CALM      29.97R
LITCHFIELD     CLEAR     45  34  65 N6        29.96R
BUFFALO        CLEAR     47  33  56 N6        29.95R
MAPLE LAKE     CLEAR     47  36  65 N7        29.95R
HUTCHINSON     CLEAR     45  35  69 N7        29.96R
$$
MNZ037-044-045-052-053-041000-
   East Central Minnesota

CITY           SKY/WX    TMP DP  RH WIND       PRES   REMARKS
PRINCETON      CLEAR     45  34  65 NW3       29.94R
MORA           CLEAR     41  32  70 N3        29.95R
CAMBRIDGE      CLEAR     46  32  57 CALM      29.91S
RUSH CITY      CLEAR     43  32  64 N3        29.92S
MOOSE LAKE     CLEAR     41  32  70 N5        29.91R
HINCKLEY       CLOUDY    43  32  65 N5        29.93R
CLOQUET        CLEAR     39  28  65 NW3       29.92R
MCGREGOR       CLEAR     41  32  70 NW5       29.94S
$$
MNZ071>073-080-081-089-090-097-098-041000-
   Southwest Minnesota

CITY           SKY/WX    TMP DP  RH WIND       PRES   REMARKS
MONTEVIDEO     CLEAR     46  34  61 N8        30.00R
GRANITE FALLS  CLEAR     47  34  60 N8        29.99R
CANBY          CLEAR     45  36  70 W8        30.01R
MARSHALL       CLEAR     45  32  60 NW10      29.98R
REDWOOD FALLS  CLEAR     47  31  53 N6        29.95R
OLIVIA         CLEAR     41  32  70 N7        29.95R
PIPESTONE      CLEAR     45  30  57 N5        29.97R
WINDOM         CLEAR     45  32  61 NW13      29.94R
WORTHINGTON    CLEAR     43  34  70 NW10      29.96R
JACKSON        PTCLDY    45  32  61 N7        29.94R
TRACY          CLEAR     46  33  61 NW10      29.97R
SLAYTON        CLEAR     46  32  58 N13       29.96R
$$
MNZ065>067-074>077-082>085-091>093-041000-
   South Central Minnesota

CITY           SKY/WX    TMP DP  RH WIND       PRES   REMARKS
MANKATO        CLEAR     48  32  53 N9        29.91R
NEW ULM        CLEAR     48  32  53 N7        29.92R
ST JAMES       CLEAR     43  28  56 NW8       29.93R
FAIRMONT       CLEAR     48  30  49 N12       29.90R
GLENCOE        CLEAR     46  37  70 N6        29.93R
FARIBAULT      CLEAR     48  34  57 N12       29.90R
OWATONNA       CLEAR     48  30  49 N15       29.89R
WASECA         CLEAR     46  32  57 N9        29.91R
ALBERT LEA     CLEAR     48  34  57 N12       29.87R
$$
MNZ078>079-086>088-094>096-041000-
   Southeast Minnesota

CITY           SKY/WX    TMP DP  RH WIND       PRES   REMARKS
ROCHESTER      CLEAR     47  37  68 N15       29.86R
RED WING       PTCLDY    48  32  53 N5        29.89R
STANTON        CLEAR     47  32  55 N10       29.89R
DODGE CENTER   PTCLDY    46  34  61 N13G18    29.87R
WINONA         CLEAR     48  36  61 N9G20     29.85R
AUSTIN         CLEAR     46  36  66 N6        29.86R
PRESTON        CLEAR     46  37  72 N13G22    29.84R
$$
ABBREVIATIONS USED IN REMARKS
   TC - TEMPERATURES IN CELSIUS
  WCI - WIND CHILL INDEX
   HX - HEAT INDEX
  VSB - VISIBILITY
$$




USA.gov is the U.S. government's official web portal to all federal, state and local government web resources and services.